Regional Weather Roundup
Issued by NWS

Home | Current Version | Previous Version | Graphics & Text | Print | Product List | Glossary On
Versions: 1 2 3 4 5 6 7 8 9 10 11 12 13 14 15 16 17 18 19 20 21 22 23 24 25 26 27 28 29 30 31 32 33 34 35 36 37 38 39 40 41 42 43 44 45 46 47 48 49 50
000
ASUS43 KLMK 010210
RWRKY
KENTUCKY REGIONAL WEATHER ROUNDUP
NATIONAL WEATHER SERVICE LOUISVILLE KY
900 PM EST SAT FEB 28 2015

NOTE "FAIR" INDICATES FEW OR NO CLOUDS BELOW 12,000 FEET
WITH NO SIGNIFICANT WEATHER AND/OR OBSTRUCTIONS TO VISIBILITY.

KYZ001>023-026-027-061>063-070>075-010300-
WESTERN AND SOUTH CENTRAL KENTUCKY

CITY           SKY/WX    TMP DP  RH WIND       PRES   REMARKS
PADUCAH        CLOUDY    34  21  59 NE8       30.45F WCI  27
HENDERSON      CLOUDY    34  19  55 N3        30.49R
OWENSBORO      CLOUDY    36  19  50 E6        30.48R WCI  31
HOPKINSVILLE   CLOUDY    35  24  64 E7        30.38F WCI  29
BOWLING GREEN  CLOUDY    36  23  59 E6        30.45F WCI  31
GLASGOW        CLOUDY    36  24  62 CALM      30.45S
$$

KYZ024-025-028>034-038-045-046-053-010300-
NORTH CENTRAL KENTUCKY

CITY           SKY/WX    TMP DP  RH WIND       PRES   REMARKS
LOUISVILLE/SDF CLOUDY    34  17  50 NE5       30.50R WCI  30
LOUISVILLE/LOU CLOUDY    33  16  49 CALM      30.51R
FORT KNOX      CLOUDY    33  18  53 E6        30.46S WCI  28
$$

KYZ035>037-039>044-047>052-055>060-089>105-010300-
NORTHEAST KENTUCKY

CITY           SKY/WX    TMP DP  RH WIND       PRES   REMARKS
LEXINGTON      CLOUDY    33  19  56 E8        30.46F WCI  26
COVINGTON      CLOUDY    27  13  55 E7        30.49F WCI  19
FRANKFORT        N/A     32  18  56 E5        30.46F WCI  27
$$

KYZ054-064>069-076>088-106>120-010300-
SOUTHEAST KENTUCKY

CITY           SKY/WX    TMP DP  RH WIND       PRES   REMARKS
JACKSON        MOCLDY    36  17  46 VRB3      30.47F
LONDON         CLOUDY    40  18  41 E3        30.46S
SOMERSET       CLOUDY    36  21  55 E3        30.47S
MIDDLESBORO    CLOUDY    34  29  80 CALM      30.48S
MONTICELLO     PTCLDY    33  27  79 CALM      30.47F
$$




USA.gov is the U.S. government's official web portal to all federal, state and local government web resources and services.